Regional Weather Roundup
Issued by NWS Columbia, SC

Home | Current Version | Previous Version | Text Only | Print | Product List | Glossary On
Versions: 1 2 3 4 5 6 7 8 9 10 11 12 13 14 15 16 17 18 19 20 21 22 23 24 25 26 27 28 29 30 31 32 33 34 35 36 37 38 39 40 41 42 43 44 45 46 47 48 49 50
000
ASUS42 KCAE 181610
RWRCAE
REGIONAL WEATHER ROUNDUP
NATIONAL WEATHER SERVICE COLUMBIA SC
1100 AM EST SAT NOV 18 2017

NOTE: "FAIR" INDICATES FEW OR NO CLOUDS BELOW 12,000 FEET WITH NO
SIGNIFICANT WEATHER AND/OR OBSTRUCTIONS TO VISIBILITY.

NOT ALL STATIONS ARE QUALITY CONTROLLED BY THE NATIONAL
WEATHER SERVICE. USE DATA WITH CAUTION...ESPECIALLY
DEWPOINT OBSERVATIONS.

SCZ001>056-GAZ040-063>065-077-181700-
...UPSTATE SOUTH CAROLINA...

CITY           SKY/WX    TMP DP  RH WIND       PRES   REMARKS
ANDERSON       CLOUDY    55  46  71 SW8       30.00F
LIBERTY        CLOUDY    53  43  70 W5        30.00F
SPARTANBURG    CLOUDY    54  39  58 SW6       29.99F
CLEMSON        CLOUDY    53  46  77 VRB5      30.01F
GREENVILLE     PTSUNNY   59  42  53 SW15G21   29.99F
GREENWOOD      PTSUNNY   61  50  67 S12       30.02F
GREER          CLOUDY    55  43  63 SW9       29.99F
ROCK HILL      SUNNY     58  43  57 SW9       29.99F
CHESTER        SUNNY     55  36  47 S9        30.01F
LAURENS        CLOUDY    55  43  62 SW8       30.00F


...CENTRAL SOUTH CAROLINA...

CITY           SKY/WX    TMP DP  RH WIND       PRES   REMARKS
COLUMBIA APT   MOSUNNY   64  51  62 SE6       30.01F
COLUMBIA OWENS PTSUNNY   57  47  69 VRB3      30.03F
MCENTIRE ANGB  PTSUNNY   61  46  56 S3        30.02F
ORANGEBURG     MOSUNNY   66  49  54 VRB5      30.03F
SUMTER SHAW    SUNNY     64  45  49 S3        30.00F
NEWBERRY       SUNNY     61  50  67 SW13      30.02F
AIKEN          FAIR      64  54  68 S12       30.04F
BARNWELL         N/A     68  57  68 S8G15     30.02F
MANNING        FAIR      64  50  59 MISG      30.03F
CAMDEN         PTSUNNY   57  46  67 S7        30.03F
LANCASTER      SUNNY     59  39  47 S12       30.01F
WINNSBORO      CLOUDY    59  45  58 S8        30.01F


...EASTERN AND COASTAL SOUTH CAROLINA...

CITY           SKY/WX    TMP DP  RH WIND       PRES   REMARKS
MYRTLE BEACH   MOSUNNY   67  58  72 S13       30.05F
N MYRTLE BCH   SUNNY     65  57  75 SE10      30.04F
CONWAY         FAIR      66  52  59 S7        30.04F
MARION         PTSUNNY   61  50  67 S7        30.03F
HARTSVILLE     PTSUNNY   61  46  59 SW6       30.02F
FLORENCE       PTSUNNY   62  47  57 S7        30.03F
DARLINGTON     SUNNY     62  48  60 S9        30.03F
CHARLESTON APT PTSUNNY   71  57  61 S8        30.03F
MOUNT PLEASANT FAIR      72  59  64 SE9       30.03F
WALTERBORO     MOSUNNY   68  55  64 S6        30.04F
BEAUFORT       SUNNY     70  61  73 S5        30.03F


...EASTERN GEORGIA...

CITY           SKY/WX    TMP DP  RH WIND       PRES   REMARKS
AUGUSTA BUSH F SUNNY     63  52  67 S3        30.02F
AUGUSTA DANIEL SUNNY     63  51  65 SE8       30.02F
THOMSON        SUNNY     63  53  69 SW5       30.05F
WASHINGTON     FAIR      59  52  77 SW6       30.01F
CLAXTON        FAIR      71  58  64 CALM      30.04F
SYLVANIA       SUNNY     69  58  68 SW7       30.04F
STATESBORO     SUNNY     71  52  51 SW3       30.03F
SAVANNAH       MOSUNNY   73  57  57 SW8       30.03F


...SOUTHERN NORTH CAROLINA...

CITY           SKY/WX    TMP DP  RH WIND       PRES   REMARKS
CHARLOTTE      PTSUNNY   59  43  55 SW8       29.98F
MONROE         SUNNY     60  45  57 SW12G21   29.98F
WADESBORO      SUNNY     62  40  44 S9        30.00F
RUTHERFORDTON  CLOUDY    55  45  69 SW10G23   29.97F
ASHEVILLE      PTSUNNY   56  46  69 S16       29.94F

$$



USA.gov is the U.S. government's official web portal to all federal, state and local government web resources and services.